AO-07 1 07530U 74089B 23082.49701462 -.00000043 00000-0 21237-4 0 9998 2 07530 101.9424 68.6135 0011953 226.7214 264.3951 12.53662503212435 UO-11 1 14781U 84021B 23082.46852554 .00002958 00000-0 35654-3 0 9990 2 14781 97.6505 62.7772 0009728 118.0693 242.1507 14.84531279 81420 AO-16 1 20439U 90005D 23082.51553413 .00000408 00000-0 16584-3 0 9993 2 20439 98.8790 70.5724 0011912 94.0773 30.3362 14.33050885732635 LO-19 1 20442U 90005G 23082.44218647 .00000386 00000-0 15710-3 0 9991 2 20442 98.8359 57.1664 0012833 71.8393 288.4187 14.33204493733063 HUBBLE 1 20580U 90037B 23082.51486984 .00006390 00000-0 34761-3 0 9996 2 20580 28.4692 117.7378 0002870 168.8420 310.3467 15.12449138608475 MET-2/21 1 22782U 93055A 23082.59547615 .00000151 00000-0 12328-3 0 9996 2 22782 82.5507 152.7066 0020881 284.8307 185.5011 13.83878044492617 AO-27 1 22825U 93061C 23082.58253875 .00000230 00000-0 10646-3 0 9991 2 22825 98.8530 124.0475 0007694 323.8793 36.1868 14.30269397538055 IO-26 1 22826U 93061D 23082.11785351 .00000230 00000-0 10570-3 0 9996 2 22826 98.8477 123.4402 0008061 309.6298 50.4172 14.30625405538255 FO-29 1 24278U 96046B 23082.49114462 -.00000001 00000-0 38483-4 0 9996 2 24278 98.5228 72.7484 0349181 279.2427 76.9384 13.53139111313349 NOAA-15 1 25338U 98030A 23082.57253262 .00000331 00000-0 15622-3 0 9994 2 25338 98.6163 113.0557 0010105 197.5331 162.5502 14.26273658292800 GO-32 1 25397U 98043D 23082.41952095 .00000209 00000-0 11116-3 0 9994 2 25397 98.8592 39.1834 0002031 52.2006 307.9356 14.23843458283129 ISS 1 25544U 98067A 23082.77276304 .00016825 00000-0 30810-3 0 9998 2 25544 51.6419 31.7118 0006068 124.0360 318.1210 15.49431195388541 NO-44 1 26931U 01043C 23082.36723242 .00000455 00000-0 20465-3 0 9997 2 26931 67.0511 58.4077 0006945 283.0358 76.9968 14.30861602121300 SO-50 1 27607U 02058C 23082.38887165 .00002785 00000-0 39573-3 0 9990 2 27607 64.5557 167.9162 0075853 241.7029 117.6406 14.76987784 89554 CO-55 1 27844U 03031E 23081.95919732 .00000645 00000-0 30752-3 0 9996 2 27844 98.6811 90.4729 0010204 22.3563 337.8058 14.22689782 23478 CO-57 1 27848U 03031J 23082.01127350 .00000531 00000-0 25903-3 0 9991 2 27848 98.6849 90.9714 0010347 36.3024 323.8854 14.22212450 23256 RS-22 1 27939U 03042A 23082.52076185 .00002196 00000-0 39065-3 0 9992 2 27939 98.2261 228.9199 0013170 51.3736 308.8655 14.68085265 41978 NOAA-18 1 28654U 05018A 23082.52230585 .00000342 00000-0 20755-3 0 9995 2 28654 98.9152 157.3133 0013279 261.0079 98.9590 14.12893972919387 CO-58 1 28895U 05043F 23082.31542846 .00002897 00000-0 54550-3 0 9990 2 28895 98.1386 215.1234 0015816 346.6408 13.4374 14.65264509928237 CO-65 1 32785U 08021C 23082.41647878 .00006142 00000-0 61849-3 0 9990 2 32785 97.6977 50.3011 0013545 35.9445 324.2683 14.91457228808030 AAUSAT2 1 32788U 08021F 23082.46648717 .00015086 00000-0 11592-2 0 9997 2 32788 97.5584 63.9471 0004152 290.2637 69.8141 15.01821982810239 DO-64 1 32789U 08021G 23082.54175204 .00056550 00000-0 21123-2 0 9995 2 32789 97.3135 105.1470 0009836 79.6147 280.6200 15.27121892814275 CO-66 1 32791U 08021J 23082.46648294 .00010397 00000-0 94318-3 0 9999 2 32791 97.6484 55.6160 0011622 350.5297 9.5703 14.95446632808844 RS-30 1 32953U 08025A 23082.49137588 .00000024 00000-0 10000-3 0 9997 2 32953 82.5089 10.3928 0020269 13.9772 346.1867 12.43120876673002 PRISM 1 33493U 09002B 23082.51732764 .00016093 00000-0 11542-2 0 9997 2 33493 98.2491 91.1454 0015910 339.1276 20.9296 15.04337889770851 NOAA-19 1 33591U 09005A 23082.55616009 .00000313 00000-0 19330-3 0 9998 2 33591 99.1117 127.0728 0014795 122.3623 237.8982 14.12715607727596 SRMSAT 1 37841U 11058D 23082.14128377 .00000539 00000-0 15109-3 0 9992 2 37841 19.9734 10.2482 0011986 165.8168 222.4326 14.10857737590643 HRBE 1 37855U 11061F 23082.53893343 .00037135 00000-0 13022-2 0 9999 2 37855 101.7049 356.6018 0128959 301.9358 56.9374 15.21742184623510 RS-40 1 38735U 12041C 23082.48477197 .00000039 00000-0 21088-3 0 9990 2 38735 82.4716 91.5372 0018280 121.1825 239.1049 12.42592304483175 ZACUBE-1 1 39417U 13066B 23082.43391133 .00004985 00000-0 58659-3 0 9994 2 39417 97.6768 47.2001 0054633 207.7194 152.1106 14.84194659504471 Delfi-N3xt 1 39428U 13066N 23082.33177223 .00006747 00000-0 98804-3 0 9991 2 39428 97.8320 10.2873 0114492 104.7003 256.6927 14.71498781499508 GOMX-1 1 39430U 13066Q 23082.47739438 .00003071 00000-0 54356-3 0 9992 2 39430 97.7902 338.5948 0145168 244.2997 114.3144 14.61376083497026 LO-74 1 39440U 13066AA 23082.38995632 .00005898 00000-0 77307-3 0 9993 2 39440 97.7648 34.0277 0074889 307.2515 52.1881 14.78740261501477 AO-73 1 39444U 13066AE 23082.42254611 .00005573 00000-0 63209-3 0 9993 2 39444 97.6633 49.6708 0053403 193.5420 166.4366 14.85692743502900 SPROUT 1 39770U 14029E 23082.59897672 .00025314 00000-0 21345-2 0 9992 2 39770 97.9578 207.6824 0009392 239.0333 120.9975 14.98112824479326 DTUSAT-2 1 40030U 14033W 23082.54320321 .00006912 00000-0 68457-3 0 9994 2 40030 97.9620 22.0791 0009910 206.8702 153.2004 14.92123203475229 EO-80 1 40032U 14033Y 23082.51911883 .00007918 00000-0 78327-3 0 9996 2 40032 97.9620 22.0720 0009703 206.5595 153.5128 14.92123576475199 HODOYOSHI-1 1 40299U 14070B 23082.47413242 .00013785 00000-0 45471-3 0 9996 2 40299 97.2049 147.4489 0010423 217.7880 267.2292 15.31491096465685 FIREBIRD FU3 1 40377U 15003B 23082.35376377 .00079769 00000-0 12515-2 0 9990 2 40377 99.0772 17.3690 0066327 147.4475 213.0888 15.50859778451240 FIREBIRD FU4 1 40378U 15003C 23082.55390970 .00094158 00000-0 14655-2 0 9994 2 40378 99.0793 17.9148 0066627 146.1188 214.4342 15.51003471451284 GRIFEX 1 40379U 15003D 23082.60175431 .00036892 00000-0 96835-3 0 9996 2 40379 99.0800 359.2489 0092029 203.7404 155.9575 15.34263578450227 XW-2A 1 40903U 15049E 23082.45365544 .00263610 00000-0 96843-3 0 9997 2 40903 97.1263 149.5964 0006475 169.4861 317.6182 15.87610822422849 XW-2C 1 40906U 15049H 23082.50965421 .00015796 00000-0 65229-3 0 9990 2 40906 97.4972 89.4901 0014750 102.1848 48.9089 15.24004636415336 XW-2D 1 40907U 15049J 23082.55416641 .00018802 00000-0 74271-3 0 9999 2 40907 97.4956 89.8628 0013927 96.6080 24.8426 15.25468439415412 LILACSAT-2 1 40908U 15049K 23082.55340454 .00008124 00000-0 39594-3 0 9993 2 40908 97.5258 85.9191 0016047 123.9220 359.6126 15.18483726414791 XW-2E 1 40909U 15049L 23082.53076972 .00033876 00000-0 10618-2 0 9990 2 40909 97.4596 95.3585 0012286 73.3212 28.0348 15.32925176415990 XW-2F 1 40910U 15049M 23082.50294456 .00033700 00000-0 10758-2 0 9999 2 40910 97.4686 94.5433 0013148 77.5190 74.4327 15.32330386415742 XW-2B 1 40911U 15049N 23082.53962339 .00018541 00000-0 73652-3 0 9994 2 40911 97.4933 90.3358 0013863 98.1971 28.8638 15.25284870415294 DCBB 1 40912U 15049P 23082.50172012 .00040834 00000-0 11216-2 0 9990 2 40912 97.4262 98.9761 0011402 44.2334 110.4031 15.37053348416411 IO-86 1 40931U 15052B 23082.34497191 .00001519 00000-0 12106-3 0 9992 2 40931 6.0000 339.2878 0012271 158.5387 201.5514 14.77111693404641 ATHENOXAT-1 1 41168U 15077C 23082.42064877 .00092533 00000-0 22299-2 0 9991 2 41168 14.9803 164.9797 0007287 222.8997 219.7127 15.39378982403004 ChubuSat-2 1 41338U 16012B 23082.30918871 .00006124 00000-0 43524-3 0 9995 2 41338 31.0040 46.5531 0012071 40.8643 319.2896 15.03202908389445 ChubuSat-3 1 41339U 16012C 23082.31984483 .00005410 00000-0 38456-3 0 9994 2 41339 31.0111 43.4664 0012141 47.5807 74.0846 15.03129607389447 Horyu-4 1 41340U 16012D 23082.16714138 .00010217 00000-0 66848-3 0 9994 2 41340 31.0056 16.0703 0010989 99.7715 260.4163 15.06473892389738 e-st@r-II 1 41459U 16025D 23082.46609938 .00032512 00000-0 10741-2 0 9995 2 41459 98.1926 275.3941 0118016 36.8104 324.1192 15.24763156379810 AAUSAT4 1 41460U 16025E 23082.51593163 .00080712 00000-0 17516-2 0 9997 2 41460 98.1719 285.4221 0082356 358.5927 55.7885 15.40490887380510 LO-87 1 41557U 16033B 23082.55446278 .00058743 00000-0 10773-2 0 9998 2 41557 97.3827 187.7449 0007948 100.7280 22.6117 15.49060300380329 NuSat2 1 41558U 16033C 23082.55845200 .00065631 00000-0 11128-2 0 9996 2 41558 97.4101 195.1392 0006878 88.7818 327.6756 15.51271170380643 Lapan A3 1 41603U 16040E 23082.55486774 .00003500 00000-0 15647-3 0 9990 2 41603 97.1767 112.0614 0011087 257.0660 206.1476 15.21899817374462 Pratham 1 41783U 16059A 23082.58201220 .00001359 00000-0 26744-3 0 9993 2 41783 97.8797 117.4702 0033364 14.0767 346.1358 14.63778242346454 TY-1 1 41844U 16066D 23082.50080919 .00055741 00000-0 12091-2 0 9994 2 41844 97.3771 99.9669 0009994 24.7857 131.0429 15.44162342354418 CAS-2T 1 41847U 16066G 23082.19316896 .00002698 00000-0 40664-3 0 9999 2 41847 98.5121 151.1406 0361978 95.3967 268.8619 14.39410425334433 EO-88 1 42017U 17008BX 23082.16466753 .00083559 00000-0 12261-2 0 9997 2 42017 97.2240 151.2717 0002057 292.9902 67.1135 15.55237622340009 CAS-4B 1 42759U 17034B 23082.52828433 .00011570 00000-0 60782-3 0 9992 2 42759 43.0172 231.2903 0011595 271.2187 205.7478 15.15638607318631 CAS-4A 1 42761U 17034D 23082.60169645 .00011688 00000-0 61223-3 0 9998 2 42761 43.0165 229.4495 0012332 273.0905 144.5048 15.15727641318651 NIUSat 1 42766U 17036B 23082.32992721 .00025872 00000-0 77067-3 0 9996 2 42766 97.1685 115.8063 0012457 60.5618 299.6867 15.34591191319427 Aalto 1 1 42775U 17036L 23082.09155636 .00021276 00000-0 68670-3 0 9990 2 42775 97.1637 114.7698 0012257 62.3265 297.9220 15.32077157319324 URSA MAIOR 1 42776U 17036M 23082.57309404 .00026076 00000-0 80505-3 0 9992 2 42776 97.1646 116.3534 0011525 59.2813 300.9564 15.33465814319455 Max Valier Sat 1 42778U 17036P 23082.09034606 .00022633 00000-0 67386-3 0 9997 2 42778 97.1686 119.1530 0010171 63.0447 297.1834 15.34659016319503 Pegasus 1 42784U 17036V 23082.59314477 .00043122 00000-0 10718-2 0 9998 2 42784 97.1599 121.4234 0008690 57.5584 302.6502 15.40144191319776 NUDATSat 1 42787U 17036Y 23082.53897146 .00151015 00000-0 18302-2 0 9992 2 42787 97.1571 129.1508 0003170 52.9371 307.2189 15.60133765320095 SUCHAI 1 1 42788U 17036Z 23082.06570841 .00056526 00000-0 11698-2 0 9993 2 42788 97.1586 123.7250 0006946 55.3321 304.8582 15.45574192319940 SKCUBE 1 42789U 17036AA 23082.11051849 .00043730 00000-0 99538-3 0 9995 2 42789 97.1597 122.6846 0007585 56.8126 303.3848 15.42807752319803 VZLUSAT 1 1 42790U 17036AB 23082.09763411 .00130729 00000-0 16615-2 0 9998 2 42790 97.1553 128.5281 0003298 47.2810 312.8724 15.58943207320168 VENTA 1 1 42791U 17036AC 23082.10339590 .00042695 00000-0 10578-2 0 9994 2 42791 97.1612 122.0900 0008019 57.7295 302.4728 15.40249355319757 Robusta 1B 1 42792U 17036AD 23082.35226910 .00049425 00000-0 10517-2 0 9994 2 42792 97.1576 123.8536 0006805 56.0137 304.1758 15.44788557319915 D-SAT 1 42794U 17036AF 23081.94338310 .00005113 00000-0 41550-3 0 9996 2 42794 97.4635 78.0851 0116817 231.0643 128.0121 14.94775587313047 TechnoSat 1 42829U 17042E 23082.55908001 .00004279 00000-0 41492-3 0 9997 2 42829 97.3949 285.1153 0014336 148.3307 211.8779 14.93089633309717 AO-91 1 43017U 17073E 23082.50519456 .00012721 00000-0 90501-3 0 9994 2 43017 97.6427 330.2440 0237672 352.3789 7.3837 14.84730785288465 PICSAT 1 43132U 18004X 23082.18028318 .00056328 00000-0 11410-2 0 9995 2 43132 97.3382 163.6195 0005539 88.1149 272.0735 15.46212110289201 AO-92 1 43137U 18004AC 23082.21051969 .00035107 00000-0 88581-3 0 9998 2 43137 97.3353 160.8379 0006889 96.0457 264.1574 15.39744844289058 TianYi 2 1 43155U 18008A 23082.51963623 .00021304 00000-0 93152-3 0 9998 2 43155 97.3117 137.2489 0012911 246.9950 227.6784 15.22022562285605 Zhou Enlai 1 43156U 18008B 23082.48621737 .00023469 00000-0 10201-2 0 9999 2 43156 97.3157 137.2254 0010577 246.5536 226.2068 15.22230423285520 TianYi 6 1 43158U 18008D 23082.12684939 .00018368 00000-0 85376-3 0 9993 2 43158 97.3152 134.1640 0010488 252.8993 160.8124 15.19980015285330 S-Net D 1 43186U 18014G 23082.27146576 .00005674 00000-0 46389-3 0 9994 2 43186 97.6403 347.6368 0012582 88.3764 271.8901 14.99691538280670 S-Net B 1 43187U 18014H 23082.27213728 .00005649 00000-0 46186-3 0 9996 2 43187 97.6396 347.5743 0012766 88.1642 272.1043 14.99686689280677 S-Net A 1 43188U 18014J 23082.27239212 .00005657 00000-0 46249-3 0 9992 2 43188 97.6405 347.6555 0012740 88.2215 272.0467 14.99688052280675 S-Net C 1 43189U 18014K 23082.54080672 .00006202 00000-0 50658-3 0 9993 2 43189 97.6398 347.8217 0013105 86.7506 273.5216 14.99684571279269 Shaonian Xing 1 43199U 18015H 23082.55171410 .00101328 00000-0 14963-2 0 9990 2 43199 97.5382 236.2647 0007834 138.2861 286.5268 15.54966811286428 CubeBel-1 1 43666U 18083E 23082.52218097 .00032349 00000-0 10271-2 0 9998 2 43666 97.3923 113.9158 0012231 73.1335 30.8018 15.32520761244056 Changshagaoxin 1 43669U 18083H 23082.58688473 .00028590 00000-0 98629-3 0 9993 2 43669 97.3906 109.0193 0009912 73.6737 46.2357 15.29893864243833 Ten-Koh 1 43677U 18084G 23082.34972139 .00003956 00000-0 39062-3 0 9997 2 43677 97.9983 220.7701 0016352 73.8585 286.4432 14.92454605239256 PO-101 1 43678U 18084H 23082.55206882 .00002919 00000-0 28586-3 0 9993 2 43678 98.0055 224.8850 0010793 86.3170 273.9292 14.93054784239486 QO-100 1 43700U 18090A 23082.40118880 .00000131 00000-0 00000-0 0 9992 2 43700 0.0167 218.4047 0000943 152.3077 340.1537 1.00273770 15823 Reaktor Hello World 1 43743U 18096AA 23082.51491595 .00060883 00000-0 11536-2 0 9992 2 43743 97.3238 167.7639 0011694 136.2700 223.9478 15.48073457240874 MinXSS-2 1 43758U 18099A 23082.32627339 .00009051 00000-0 72642-3 0 9993 2 43758 97.5864 148.3595 0017154 56.7855 303.5010 15.00177558234861 AO-95 1 43770U 18099N 23082.40297968 .00007000 00000-0 58393-3 0 9996 2 43770 97.5841 146.2686 0015208 63.1351 297.1424 14.98799738234750 RANGE-B 1 43772U 18099Q 23082.16438707 .00008541 00000-0 68717-3 0 9991 2 43772 97.5923 148.5176 0010741 45.4369 314.7730 15.00172115234766 RANGE-A 1 43773U 18099R 23082.17594845 .00005265 00000-0 45295-3 0 9995 2 43773 97.5732 144.3816 0013635 53.9574 306.2910 14.97730458234689 MOVE-II 1 43780U 18099Y 23082.41370787 .00011663 00000-0 89831-3 0 9990 2 43780 97.5765 148.3410 0010940 84.6188 275.6284 15.01753677234851 SNUSat 2 1 43782U 18099AA 23082.43064596 .00006752 00000-0 56447-3 0 9992 2 43782 97.5812 146.8147 0011816 47.3065 312.9152 14.98764122234782 SnugLite 1 43784U 18099AC 23082.41221243 .00006317 00000-0 52133-3 0 9991 2 43784 97.5803 146.4293 0015180 53.0620 307.1992 14.99249755234814 ITASat 1 1 43786U 18099AE 23082.12323098 .00006699 00000-0 56175-3 0 9995 2 43786 97.5847 147.0279 0015480 59.0187 301.2554 14.98608234234754 EAGLET 1 1 43790U 18099AJ 23082.41243122 .00004345 00000-0 36830-3 0 9993 2 43790 97.5859 147.8312 0014206 58.6964 301.5648 14.98391489234535 ESEO 1 43792U 18099AL 23082.16059957 .00002687 00000-0 23679-3 0 9992 2 43792 97.5788 146.2936 0013729 57.3723 302.8822 14.97197332234517 CSIM 1 43793U 18099AM 23082.40246987 .00012097 00000-0 91738-3 0 9998 2 43793 97.5835 149.5260 0016536 60.0296 300.2568 15.02273333234693 Astrocast 0.1 1 43798U 18099AS 23082.12939539 .00011462 00000-0 89886-3 0 9990 2 43798 97.5912 148.6842 0015172 31.3516 328.8610 15.01028237234853 JO-97 1 43803U 18099AX 23082.47958234 .00007796 00000-0 63495-3 0 9991 2 43803 97.5833 147.2911 0015254 50.0546 310.2015 14.99684196234847 Suomi 100 1 43804U 18099AY 23082.45912188 .00008756 00000-0 71731-3 0 9997 2 43804 97.5810 147.1069 0015853 57.7113 302.5643 14.99414861234846 Al Farabi 2 1 43805U 18099AZ 23082.15582674 .00008709 00000-0 69003-3 0 9995 2 43805 97.5912 147.7482 0010193 52.1778 308.0374 15.00759209234846 CHOMPTT 1 43855U 18104G 23082.37035450 .00028249 00000-0 80925-3 0 9993 2 43855 85.0328 224.3208 0012771 280.9204 79.0608 15.35697856237385 ISAT 1 43879U 18111D 23082.27872069 .00009695 00000-0 76131-3 0 9999 2 43879 97.6510 347.9700 0015577 79.5432 280.7546 15.01016931231449 UWE-4 1 43880U 18111E 23082.26468459 .00008225 00000-0 64746-3 0 9991 2 43880 97.6465 348.8104 0017895 101.6745 258.6489 15.00940730231472 Sparrow 1 43881U 18111F 23082.23865518 .00008762 00000-0 68316-3 0 9999 2 43881 97.6515 349.2041 0013887 123.9302 236.3245 15.01339299231484 Lume 1 1 43908U 18111AJ 23082.45054953 .00034868 00000-0 85483-3 0 9996 2 43908 97.1537 327.2513 0015482 144.7152 215.5123 15.40521182236161 FO-99 1 43937U 19003F 23082.60220175 .00049344 00000-0 10857-2 0 9994 2 43937 97.0989 111.3636 0014361 219.9544 140.0649 15.43712507232804 AstroCast 0.2 1 44083U 19018F 23082.10973533 .00051874 00000-0 13047-2 0 9996 2 44083 97.2794 141.7255 0008223 205.7253 154.3585 15.39743618221129 AISTechSat 3 1 44103U 19018AB 23080.44860306 .00028576 00000-0 81301-3 0 9999 2 44103 97.2671 139.7698 0009618 220.2017 265.6872 15.36049077221011 AISat 1 1 44104U 19018AC 23082.25859813 .00023710 00000-0 52326-3 0 9992 2 44104 97.3739 172.2817 0044206 209.1514 150.7266 15.42823329222450 Prox-1 1 44339U 19036A 23082.45593429 .00009625 00000-0 20014-2 0 9999 2 44339 24.0008 229.0805 0010695 41.7805 318.3502 14.58111717199064 Move-IIb 1 44398U 19038N 23082.44987035 .00050835 00000-0 16444-2 0 9996 2 44398 97.6590 61.7628 0013244 226.6577 133.3561 15.31807416205505 SONATE 1 44400U 19038Q 23081.88025951 .00014954 00000-0 70997-3 0 9993 2 44400 97.6774 57.9162 0019228 249.9488 109.9676 15.19185531205127 BeeSat 9 1 44412U 19038AC 23082.41485759 .00026895 00000-0 10631-2 0 9997 2 44412 97.6694 60.5475 0014054 241.5416 118.4406 15.25372571205067 JAISAT-1 1 44419U 19038F 23082.18702622 .00026839 00000-0 10498-2 0 9998 2 44419 97.6698 61.3529 0013183 237.6308 122.3654 15.25734801205400 Taurus 1 1 44530U 19059C 23082.55914156 .00006756 00000-0 17847-2 0 9994 2 44530 98.5464 189.1324 0011425 357.2183 2.8924 14.49163890186234 Duchifat 3 1 44854U 19089C 23082.45919778 .00010953 00000-0 76859-3 0 9993 2 44854 36.9658 243.0630 0009598 339.2533 54.0108 15.04613774179914 OPS-SAT 1 44878U 19092F 23082.25200163 .00031991 00000-0 11182-2 0 9994 2 44878 97.4775 270.1704 0009801 85.0908 275.1450 15.29444397180631 TO-108 1 44881U 19093C 23082.50668870 .00001565 00000-0 20213-3 0 9990 2 44881 97.8656 162.4157 0014801 2.8740 357.2551 14.82292407176101 FloripaSat 1 1 44885U 19093G 23082.46289494 .00005322 00000-0 62931-3 0 9998 2 44885 97.8717 164.6156 0013467 6.4966 353.6400 14.84985946176228 RS-44 1 44909U 19096E 23082.37930846 .00000008 00000-0 -16170-4 0 9994 2 44909 82.5224 44.9528 0218118 27.8670 333.3915 12.79719247151186 BY70-2 1 45857U 20042B 23082.51643142 .00022638 00000-0 25434-2 0 9999 2 45857 97.9295 162.3396 0008627 277.9307 82.0912 14.86706846146799 UPMSat 2 1 46276U 20061E 23082.19646308 .00010747 00000-0 47667-3 0 9998 2 46276 97.3552 151.6333 0000239 155.4914 204.6334 15.21763435141200 AmicalSat 1 46287U 20061R 23082.43768983 .00014249 00000-0 71074-3 0 9991 2 46287 97.4092 150.6663 0002783 62.0417 298.1098 15.17627178140699 SALSAT 1 46495U 20068K 23082.35129978 .00006579 00000-0 44534-3 0 9993 2 46495 97.7616 29.5504 0017465 55.5525 304.7350 15.06727105136142 BY70-3 1 46839U 20079N 23082.49217521 .00626163 00000-0 22467-2 0 9991 2 46839 97.1517 159.7484 0004687 262.1920 226.3213 15.87269006133546 CAPE 3 1 47309U 21002A 23082.31668654 .00035678 00000-0 10285-2 0 9999 2 47309 60.6812 29.8338 0032439 132.2450 228.1402 15.34998435121070 AO-109 1 47311U 21002C 23082.35903929 .00028684 00000-0 85689-3 0 9993 2 47311 60.6840 27.3610 0030774 128.7223 231.6628 15.34029352121092 MiTEE 1 1 47314U 21002F 23082.34865783 .00122198 00000-0 17417-2 0 9998 2 47314 60.6751 5.6284 0025369 120.4466 239.9148 15.55234901121486 ExoCube 2 1 47319U 21002L 23082.38441671 .00028735 00000-0 87536-3 0 9995 2 47319 60.6824 29.0860 0031292 130.7995 229.5820 15.33395507121034 UVSQ-SAT 1 47438U 21006AB 23082.16089541 .00017912 00000-0 79795-3 0 9994 2 47438 97.3956 140.6305 0010562 32.8219 327.3671 15.21447453119551 YUSAT 1 1 47439U 21006AC 23082.10808167 .00022919 00000-0 97095-3 0 9998 2 47439 97.3965 141.0553 0009831 31.5413 328.6411 15.23114555119575 SOMP 2b 1 47445U 21006AJ 23082.11070600 .00017774 00000-0 80646-3 0 9996 2 47445 97.3927 139.9575 0010514 37.4561 322.7405 15.20819965119526 IDEASSat 1 47458U 21006AX 23082.39268855 .00015051 00000-0 69141-3 0 9994 2 47458 97.4015 140.9727 0009784 36.1309 324.0586 15.20436855119554 CubeSX-Sirius-HSE 1 47951U 21022V 23082.56018602 .00012247 00000-0 72329-3 0 9998 2 47951 97.5064 341.3788 0017535 271.6951 208.1665 15.11523495110089 CubeSX-HSE 1 47952U 21022W 23082.52933581 .00012741 00000-0 75096-3 0 9990 2 47952 97.5063 341.3887 0017686 271.2278 166.7681 15.11586266110086 KSU-Cubesat 1 47954U 21022Y 23082.27890560 .00013604 00000-0 78785-3 0 9990 2 47954 97.5067 341.4146 0016955 270.2623 89.6665 15.12215113109783 GRBAlpha 1 47959U 21022AD 23082.52841613 .00013079 00000-0 76938-3 0 9992 2 47959 97.5073 341.4574 0017354 271.0574 211.8654 15.11654183108901 Orbicraft-Zorkiy 1 47960U 21022AE 23082.51926017 .00014211 00000-0 82408-3 0 9993 2 47960 97.5092 341.7659 0017003 270.6665 208.0581 15.12155892109607 STECCO 1 47962U 21022AG 23082.55149152 .00022606 00000-0 11573-2 0 9997 2 47962 97.5067 343.5295 0011424 259.9542 200.8952 15.16563422109048 DO-111 1 47963U 21022AH 23081.20900685 .00109064 00000-0 31535-2 0 9999 2 47963 97.5079 346.6926 0006642 230.3256 129.7401 15.35172718109142 MO-110 1 47964U 21022AJ 23082.29414493 .00020960 00000-0 10534-2 0 9990 2 47964 97.5073 343.7630 0013660 254.6274 105.3450 15.17202687109035 FEES 1 48082U 21022AL 23082.27319225 .00035245 00000-0 15837-2 0 9990 2 48082 97.5075 344.3257 0009325 247.8842 112.1404 15.21019163108774 CSS 1 48274U 21035A 23082.58984081 .00045321 00000-0 48271-3 0 9994 2 48274 41.4742 317.9844 0002506 225.3932 221.9108 15.63172986108442 TUBIN 1 48900U 21059X 23082.57559350 .00012067 00000-0 60183-3 0 9999 2 48900 97.5837 215.8059 0009376 213.5031 207.2125 15.17644804 96185 IT-SPINS 1 49017U 21013G 23082.34974252 .00031123 00000-0 86693-3 0 9994 2 49017 51.5931 137.8455 0009720 8.3901 351.7243 15.36475419 96486 LEDSAT 1 49069U 21073D 23082.16517159 .00010712 00000-0 61507-3 0 9994 2 49069 97.4893 154.5698 0025768 59.8759 300.5021 15.12419627 87890 CUTE 1 49263U 21088D 23082.14750884 .00011212 00000-0 75455-3 0 9991 2 49263 97.5520 149.5080 0018929 192.9190 167.1555 15.06739999 81323 TeikyoSat 4 1 49396U 21102B 23082.12786982 .00002239 00000-0 17585-3 0 9990 2 49396 97.5259 136.7639 0015164 34.2575 325.9624 15.01813023 74857 Z-Sat 1 49399U 21102E 23082.48947317 .00005208 00000-0 37774-3 0 9994 2 49399 97.4966 138.2063 0022129 5.7761 354.3716 15.04147410 75000 KOSEN 1 1 49402U 21102H 23082.12606990 .00005203 00000-0 36260-3 0 9993 2 49402 97.4883 138.2305 0020868 356.5054 3.6024 15.05666898 75005 HO-113 1 50466U 21131B 23082.56646997 .00001212 00000-0 40886-3 0 9991 2 50466 98.5545 164.3805 0005006 51.1835 308.9799 14.38767672 65041 Tevel-3 1 50988U 22002E 23082.54577944 .00022813 00000-0 10178-2 0 9991 2 50988 97.4435 150.2790 0009489 168.6411 298.6924 15.21355679 65729 Tevel-8 1 50989U 22002F 23082.49851794 .00022958 00000-0 10261-2 0 9997 2 50989 97.4451 150.2815 0009519 167.9952 317.2629 15.21293936 65718 Tevel-5 1 50998U 22002Q 23082.45802380 .00023696 00000-0 10359-2 0 9998 2 50998 97.4430 150.4850 0010918 164.7698 252.5525 15.22031557 65731 Tevel-6 1 50999U 22002R 23082.45666759 .00023706 00000-0 10362-2 0 9993 2 50999 97.4425 150.4798 0010638 165.5904 251.7930 15.22037228 65737 Tevel-1 1 51013U 22002AF 23082.42555626 .00022835 00000-0 10200-2 0 9991 2 51013 97.4439 150.1152 0009376 168.6209 319.8522 15.21314551 65706 Grizu-263a 1 51025U 22002AT 23082.19798278 .00054731 00000-0 17381-2 0 9997 2 51025 97.4592 153.3122 0010664 171.6356 188.5066 15.32408888 65837 NO-116 1 51031U 22002AZ 23082.41862817 .00034791 00000-0 13403-2 0 9995 2 51031 97.4545 152.1523 0011546 169.9083 190.2389 15.26202092 65796 IRIS-A 1 51044U 22002BN 23082.40976701 .00011357 00000-0 56951-3 0 9995 2 51044 97.4432 149.2524 0009105 170.8727 189.2674 15.17464357 65640 Tevel-7 1 51062U 22002CG 23082.43437498 .00023005 00000-0 10280-2 0 9990 2 51062 97.4448 150.1941 0009426 168.3145 316.2252 15.21300655 65709 Tevel-4 1 51063U 22002CH 23082.43871212 .00022961 00000-0 10271-2 0 9997 2 51063 97.4444 150.1868 0009283 168.4264 320.2978 15.21264106 65708 Tevel-2 1 51069U 22002CP 23082.42034944 .00022822 00000-0 10184-2 0 9994 2 51069 97.4438 150.1310 0009479 168.7489 321.7906 15.21350754 65700 DELFI-PQ 1 51074U 22002CU 23082.13975693 .00040480 00000-0 14463-2 0 9997 2 51074 97.4680 153.7158 0011711 196.1346 163.9523 15.28654649 65824 SO-115 1 51080U 22002DA 23082.00054411 .00027239 00000-0 11104-2 0 9992 2 51080 97.4700 152.7551 0011906 198.4816 161.5991 15.24359031 65740 SO-114 1 51081U 22002DB 23081.99625281 .00027613 00000-0 11220-2 0 9994 2 51081 97.4692 152.7146 0012213 198.1686 161.9117 15.24462774 65748 OreSat0 1 52017U 22026K 23082.51884356 .00023802 00000-0 10495-2 0 9998 2 52017 97.5116 84.8452 0024976 30.5458 329.7226 15.21504719 56502 Planetum 1 1 52738U 22057G 23082.25105912 .00017667 00000-0 88340-3 0 9994 2 52738 97.5283 198.4674 0006659 284.7709 75.2786 15.17482088 45618 Foresail-1 1 52766U 22057AL 23082.47799950 .00012993 00000-0 65125-3 0 9993 2 52766 97.5389 199.5200 0011746 265.4782 164.1615 15.17428322 45679 SNUGLITE 2 1 52899U 22065F 23082.36660661 .00002321 00000-0 50342-3 0 9992 2 52899 98.0542 229.6741 0009100 122.2556 237.9527 14.59011101 38343 CTIM 1 52950U 22074G 23082.53297835 .00044160 00000-0 12686-2 0 9993 2 52950 45.0020 115.3480 0009964 36.1156 324.0404 15.35148722 40409 IO-117 1 53106U 22080B 23080.11397462 -.00000003 00000-0 00000-0 0 9997 2 53106 70.1803 350.3243 0008309 206.6105 153.4129 6.42557126 16095 SelfieSat 1 53951U 22057BA 23082.55638649 .00024524 00000-0 11906-2 0 9996 2 53951 97.5329 199.1778 0009195 275.7887 84.2299 15.18424493 45677 FO-118 1 54684U 22167C 23082.44426297 .00016311 00000-0 96119-3 0 9999 2 54684 97.5466 220.8177 0013777 267.9644 178.6596 15.11588888 15715 /EX
